Location: Unspecified
(44.0704°N, 88.6889°W)
Time: 10:23:49
(UTC+02:00)

Vanguard 2 Rocket - Pass Details

Date: 14 August 2020
Orbit: 554 x 3326 km, 32.9° (Epoch: 22 September)

Event Time Altitude Azimuth Distance (km) Brightness Sun altitude
Rises 06:41:22 0° 266° (W) 4,893 10.9 -29.1°
Reaches altitude 10° 06:45:15 10° 251° (WSW) 4,328 10.3 -29.3°
Enters shadow 06:52:58 22° 212° (SSW) 4,177 9.9 -29.8°
